Overview Statistics Trail Chart Weather Telemetry Raw packets
 

This is the latest recevied weather packets stored in our database for station/object XE2RCS-1. If no packets are shown the sender has not sent any weather packets the latest 10 day(s).

<< 48 49 50 51 52 53 54 >>
Time Temp. Humidity Pressure Rain* Wind** Luminosity Snow
1787933317 27.22° C 10% - 0 mm - - -
1787932716 27.22° C 10% - 0 mm - - -
1787932115 27.22° C 10% - 0 mm - - -
1787931515 22.22° C 67% 1020 hPa 0 mm - - -
1787930314 23.33° C 67% 1020 hPa 0 mm - - -
1787929713 24.44° C 67% 1020 hPa 0 mm - - -
1787929112 25.56° C 67% 1020 hPa 0 mm - - -
1787928512 20.56° C 60% 1020 hPa 0 mm - - -
1787927911 20° C 85% 1021 hPa 0 mm - - -
1787927311 20° C 85% 1021 hPa 0 mm - - -
1787926710 20° C 69% 1021 hPa 0 mm - - -
1787926109 19.44° C 59% 1021 hPa 0 mm - - -
1787925508 19.44° C 59% 1021 hPa 0 mm - - -
1787924908 19.44° C 59% 1021 hPa 0 mm - - -
1787924307 19.44° C 73% 1021 hPa 0 mm - - -
1787923706 19.44° C 73% 1022 hPa 0 mm - - -
1787923113 19.44° C 73% 1022 hPa 0 mm - - -
1787922505 18.89° C 74% 1020 hPa 0 mm - - -
1787921905 18.33° C 74% 1020 hPa 0 mm - - -
1787921304 18.33° C 74% 1020 hPa 0 mm - - -
1787920703 18.33° C 73% 1020 hPa 0 mm - - -
1787920103 18.33° C 73% 1022 hPa 0 mm - - -
1787919502 18.33° C 73% 1022 hPa 0 mm - - -
1787918902 18.89° C 70% 1021 hPa 0 mm - - -
1787918301 18.89° C 60% 1019 hPa 0 mm - - -

* Rain latest hour (hover to see other rain measurements)
** Current wind speed in m/s (hover to see current wind gust speed)